Tracking 35334 objects as of 12-Sep-2026
HD Live streaming from Space Station
objects crossing your sky now

COSMOS 1408 DEB


COSMOS 1408 DEB is no longer on orbit


NORAD ID: 50289
Int'l Code: 1982-092ZE
Launch date: September 16, 1982
Source: Commonwealth of Independent States (former USSR) (CIS)
Launch site: PLESETSK MISSILE AND SPACE COMPLEX (PKMTR)
Decay date: 2022-01-19

Note: This is SATELLITE DEBRIS
Your satellite tracking list
Your tracking list is empty




NASA's NSSDC Master Catalog

Two Line Element Set (TLE):
1 50289U 82092ZE  22013.69825033  .03940642  00000-0  43151-1 0  9992
2 50289  82.4781  65.8750 0083527 226.5433 132.8854 15.55067500  7852
Source of the keplerian elements: AFSPC